GW0507 Weather Reports


time (UTC)temp
F
wind
direction
speed
knots
gust
knots
rain 1hr
in
rain 24hr
in
rain mn
in
humidity
%
barometer
mb
20260508053036 42 249 2.6 3.5 0.00 0.77 0.00 96 1001.6
20260508051538 42 0 0.0 2.6 0.00 0.77 0.00 97 1001.5
20260508050035 42 84 0.9 5.2 0.00 0.77 0.00 96 1001.7
20260508044541 42 252 0.9 1.7 0.00 0.77 0.00 96 1001.7
20260508043049 42 252 0.0 1.7 0.00 0.77 0.00 96 1001.7
20260508041539 43 252 0.9 6.1 0.00 0.77 0.00 96 1001.7
20260508040037 43 245 2.6 6.1 0.00 0.77 0.00 96 1001.7
20260508034547 43 237 3.5 6.1 0.00 0.77 0.00 96 1001.8
20260508033041 44 296 1.7 6.1 0.00 0.77 0.00 96 1001.8
20260508031541 44 248 2.6 5.2 0.00 0.77 0.00 96 1002.0
20260508030038 45 221 0.9 4.3 0.00 0.77 0.00 96 1002.0
20260508024535 46 5 3.5 6.1 0.00 0.77 0.77 97 1002.2
20260508023035 45 68 1.7 8.7 0.00 0.77 0.77 96 1001.9
20260508021538 45 75 2.6 5.2 0.00 0.77 0.77 96 1002.1
20260508020042 47 223 0.9 3.5 0.00 0.77 0.77 96 1002.0
20260508014534 50 302 4.3 8.7 0.00 0.77 0.77 97 1001.6
20260508013033 49 312 4.3 8.7 0.00 0.77 0.77 97 1001.5
20260508011535 48 170 1.7 8.7 0.00 0.77 0.77 97 1001.2
20260508010035 46 33 2.6 3.5 0.00 0.77 0.77 96 1001.4
20260508004538 46 15 2.6 4.3 0.00 0.77 0.77 97 1001.4
20260508003033 45 338 1.7 3.5 0.00 0.77 0.77 97 1001.6
20260508001533 46 100 6.1 8.7 0.00 0.77 0.77 96 1001.5
20260508000040 46 313 0.9 7.0 0.00 0.77 0.77 96 1001.7
20260507234539 47 156 7.8 10.4 0.00 0.77 0.77 97 1001.4
20260507233034 47 66 1.7 3.5 0.00 0.77 0.77 96 1001.4
20260507231540 47 24 1.7 3.5 0.00 0.77 0.77 96 1001.5
20260507230033 46 53 2.6 4.3 0.00 0.77 0.77 96 1001.7
20260507224535 46 90 2.6 7.0 0.00 0.77 0.77 96 1001.4
20260507223035 47 133 0.9 4.3 0.00 0.77 0.77 96 1001.3
20260507221534 45 44 1.7 4.3 0.00 0.77 0.77 97 1001.7
20260507220041 44 120 8.7 13.0 0.00 0.77 0.77 95 1001.8
20260507214541 46 106 2.6 7.8 0.01 0.77 0.77 95 1002.0
20260507213045 46 119 10.4 13.0 0.04 0.77 0.77 95 1001.7
20260507211536 48 200 6.1 12.2 0.13 0.77 0.77 95 1002.5
20260507210045 49 189 6.1 13.0 0.17 0.77 0.77 96 1001.8
20260507204545 49 151 7.0 11.3 0.23 0.76 0.76 96 1001.7
20260507203044 49 146 7.0 12.2 0.25 0.72 0.72 97 1002.6
20260507201541 48 154 9.6 13.0 0.24 0.64 0.64 97 1002.7
20260507200038 48 136 8.7 11.3 0.25 0.59 0.59 95 1003.0
20260507194536 52 153 5.2 13.9 0.26 0.52 0.52 93 1003.6
20260507193034 53 229 7.0 13.0 0.33 0.46 0.46 97 1003.9
20260507191534 49 192 3.5 16.5 0.31 0.39 0.39 95 1003.9
20260507190036 48 157 4.3 9.6 0.26 0.33 0.33 95 1004.0
20260507184533 49 151 5.2 11.3 0.18 0.25 0.25 94 1004.3
20260507183042 52 215 6.1 16.5 0.07 0.13 0.13 94 1004.4
20260507181535 52 139 8.7 16.5 0.01 0.07 0.07 94 1004.5
20260507180035 48 235 4.3 10.4 0.00 0.07 0.07 92 1004.4
20260507174535 51 198 7.8 18.2 0.00 0.06 0.06 92 1004.3
20260507173042 52 244 9.6 17.4 0.00 0.06 0.06 93 1004.3
20260507171550 52 175 9.6 24.3 0.00 0.06 0.06 91 1004.9
20260507170034 53 182 11.3 22.6 0.00 0.06 0.06 91 1004.8
20260507164535 53 169 12.2 27.8 0.00 0.06 0.06 91 1005.0
20260507163034 53 167 9.6 22.6 0.00 0.06 0.06 90 1005.5
20260507161533 54 143 12.2 28.7 0.00 0.06 0.06 90 1005.8
20260507160034 54 143 11.3 29.5 0.00 0.06 0.06 91 1006.1
20260507154536 56 142 14.8 30.4 0.00 0.06 0.06 89 1006.5
20260507153030 54 221 12.2 24.3 0.00 0.06 0.06 89 1006.6
20260507151537 55 207 13.9 25.2 0.00 0.06 0.06 90 1006.9
20260507150034 54 229 10.4 28.7 0.00 0.06 0.06 90 1006.9
20260507144547 54 172 13.0 26.9 0.00 0.06 0.06 89 1007.5
20260507143034 54 59 12.2 25.2 0.00 0.06 0.06 91 1007.8
20260507141535 56 224 17.4 33.9 0.00 0.06 0.06 89 1007.9
20260507140036 56 169 14.8 33.0 0.00 0.06 0.06 88 1008.1
20260507134535 57 153 14.8 30.4 0.00 0.06 0.06 88 1008.0
20260507133042 55 348 11.3 27.8 0.00 0.06 0.06 89 1008.1
20260507131541 54 113 10.4 20.9 0.00 0.06 0.06 90 1008.6
20260507130039 53 221 9.6 20.9 0.01 0.06 0.06 92 1008.5
20260507124537 52 182 8.7 26.9 0.03 0.06 0.06 92 1008.9
20260507123036 52 62 9.6 21.7 0.05 0.06 0.06 93 1009.1
20260507121535 52 180 9.6 33.0 0.06 0.06 0.06 93 1009.3
20260507120034 53 226 13.9 23.5 0.04 0.04 0.04 93 1009.7
20260507114535 53 226 13.9 28.7 0.02 0.02 0.02 94 1010.0
20260507113041 52 136 10.4 26.9 0.00 0.00 0.00 93 1010.2
20260507111544 51 175 10.4 20.9 0.00 0.00 0.00 93 1010.4
20260507110037 51 158 9.6 21.7 0.00 0.00 0.00 94 1010.3
20260507104535 51 161 13.0 21.7 0.00 0.00 0.00 96 1010.3
20260507103037 49 176 12.2 17.4 0.00 0.00 0.00 97 1010.8
20260507101544 49 152 7.8 15.6 0.00 0.00 0.00 96 1010.9
20260507100044 49 107 8.7 14.8 0.00 0.00 0.00 97 1011.1
20260507094546 48 124 7.0 14.8 0.00 0.00 0.00 97 1011.5
20260507093042 48 159 7.0 13.0 0.00 0.00 0.00 98 1012.1
20260507091536 42 66 7.0 8.7 0.00 0.00 0.00 96 1011.8
20260507090037 41 66 6.1 10.4 0.00 0.00 0.00 96 1012.2
20260507084537 41 85 9.6 13.9 0.00 0.00 0.00 96 1012.2
20260507083042 42 77 7.8 10.4 0.00 0.00 0.00 96 1011.8
20260507081539 42 88 7.8 9.6 0.00 0.00 0.00 96 1012.2
20260507080040 45 94 9.6 13.0 0.00 0.00 0.00 96 1012.4
20260507074536 48 126 9.6 14.8 0.00 0.00 0.00 98 1012.6
20260507073034 42 90 11.3 15.6 0.00 0.00 0.00 95 1012.8
20260507071542 43 123 13.0 19.1 0.00 0.00 0.00 96 1013.1
20260507070034 42 117 15.6 20.0 0.00 0.00 0.00 95 1012.9
20260507064540 42 117 12.2 17.4 0.00 0.00 0.00 94 1013.1
20260507063045 42 111 13.9 16.5 0.00 0.00 0.00 93 1013.1
20260507061535 43 117 12.2 13.9 0.00 0.00 0.00 90 1013.4
20260507060052 44 113 8.7 14.8 0.00 0.00 0.00 89 1013.6
20260507054547 48 60 1.7 9.6 0.00 0.00 0.00 82 1013.6